| time (UTC) | temp C | wind direction | speed KPH | gust KPH | rain 1hr cm | rain 24hr cm | rain mn cm | humidity % | barometer mb |
| 20260507103610 | 10 | 170 | 4.8 | 22.5 | 0.00 | 0.00 | 0.00 | 43 | 971.5 |
| 20260507103040 | 10 | 340 | 4.8 | 19.3 | 0.00 | 0.00 | 0.00 | 42 | 971.4 |
| 20260507102510 | 11 | 116 | 4.8 | 17.7 | 0.00 | 0.00 | 0.00 | 42 | 971.4 |
| 20260507101940 | 11 | 132 | 6.4 | 17.7 | 0.00 | 0.00 | 0.00 | 43 | 971.4 |
| 20260507101440 | 12 | 101 | 4.8 | 16.1 | 0.00 | 0.00 | 0.00 | 41 | 971.3 |
| 20260507100940 | 12 | 122 | 4.8 | 14.5 | 0.00 | 0.00 | 0.00 | 44 | 971.6 |
| 20260507100440 | 11 | 169 | 4.8 | 17.7 | 0.00 | 0.00 | 0.00 | 45 | 971.7 |
| 20260507095940 | 11 | 113 | 6.4 | 17.7 | 0.00 | 0.00 | 0.00 | 44 | 971.3 |
| 20260507095440 | 11 | 173 | 6.4 | 17.7 | 0.00 | 0.00 | 0.00 | 46 | 971.3 |
| 20260507094910 | 11 | 198 | 4.8 | 12.9 | 0.00 | 0.00 | 0.00 | 44 | 971.2 |
| 20260507094409 | 11 | 179 | 4.8 | 17.7 | 0.00 | 0.00 | 0.00 | 46 | 971.6 |
| 20260507093840 | 11 | 168 | 4.8 | 17.7 | 0.00 | 0.00 | 0.00 | 47 | 971.5 |
| 20260507093339 | 11 | 217 | 4.8 | 12.9 | 0.00 | 0.00 | 0.00 | 45 | 971.3 |
| 20260507092839 | 11 | 189 | 4.8 | 14.5 | 0.00 | 0.00 | 0.00 | 46 | 971.6 |
| 20260507092310 | 11 | 200 | 4.8 | 14.5 | 0.00 | 0.00 | 0.00 | 46 | 971.5 |
| 20260507091809 | 10 | 145 | 4.8 | 22.5 | 0.00 | 0.00 | 0.00 | 50 | 971.5 |
| 20260507091309 | 10 | 264 | 6.4 | 22.5 | 0.00 | 0.00 | 0.00 | 53 | 971.5 |
| 20260507090809 | 10 | 95 | 4.8 | 17.7 | 0.00 | 0.00 | 0.00 | 48 | 971.2 |
| 20260507090309 | 11 | 144 | 4.8 | 14.5 | 0.00 | 0.00 | 0.00 | 50 | 971.4 |
| 20260507085809 | 10 | 243 | 4.8 | 16.1 | 0.00 | 0.00 | 0.00 | 53 | 971.5 |
| 20260507085309 | 10 | 153 | 4.8 | 19.3 | 0.00 | 0.00 | 0.00 | 52 | 971.3 |
| 20260507084809 | 10 | 183 | 4.8 | 19.3 | 0.00 | 0.00 | 0.00 | 53 | 971.3 |
| 20260507084309 | 10 | 173 | 4.8 | 16.1 | 0.00 | 0.00 | 0.00 | 52 | 971.4 |
| 20260507083809 | 10 | 99 | 4.8 | 16.1 | 0.00 | 0.00 | 0.00 | 53 | 971.2 |
| 20260507083309 | 10 | 139 | 6.4 | 16.1 | 0.00 | 0.00 | 0.00 | 54 | 971.2 |
| 20260507082809 | 9 | 151 | 4.8 | 16.1 | 0.00 | 0.00 | 0.00 | 56 | 971.1 |
| 20260507082309 | 10 | 135 | 4.8 | 14.5 | 0.00 | 0.00 | 0.00 | 55 | 971.2 |
| 20260507081809 | 10 | 158 | 4.8 | 19.3 | 0.00 | 0.00 | 0.00 | 57 | 971.1 |
| 20260507081309 | 9 | 144 | 4.8 | 19.3 | 0.00 | 0.00 | 0.00 | 57 | 971.1 |
| 20260507080739 | 9 | 110 | 4.8 | 19.3 | 0.00 | 0.00 | 0.00 | 57 | 971.1 |
| 20260507080239 | 9 | 132 | 4.8 | 14.5 | 0.00 | 0.00 | 0.00 | 56 | 971.1 |
| 20260507075709 | 9 | 147 | 4.8 | 14.5 | 0.00 | 0.00 | 0.00 | 60 | 971.1 |
| 20260507075209 | 8 | 128 | 4.8 | 14.5 | 0.00 | 0.00 | 0.00 | 58 | 971.0 |
| 20260507074709 | 9 | 181 | 4.8 | 14.5 | 0.00 | 0.00 | 0.00 | 60 | 971.0 |
| 20260507074209 | 9 | 166 | 4.8 | 12.9 | 0.00 | 0.00 | 0.00 | 58 | 971.1 |
| 20260507073709 | 10 | 148 | 4.8 | 12.9 | 0.00 | 0.00 | 0.00 | 57 | 970.9 |
| 20260507073209 | 10 | 165 | 4.8 | 12.9 | 0.00 | 0.00 | 0.00 | 58 | 970.9 |
| 20260507072709 | 9 | 160 | 4.8 | 11.3 | 0.00 | 0.00 | 0.00 | 59 | 970.9 |
| 20260507072209 | 9 | 112 | 3.2 | 11.3 | 0.00 | 0.00 | 0.00 | 57 | 970.8 |
| 20260507071709 | 10 | 185 | 3.2 | 11.3 | 0.00 | 0.00 | 0.00 | 57 | 970.8 |
| 20260507071209 | 9 | 114 | 3.2 | 11.3 | 0.00 | 0.00 | 0.00 | 59 | 970.9 |
| 20260507070709 | 8 | 88 | 4.8 | 17.7 | 0.00 | 0.00 | 0.00 | 58 | 970.9 |
| 20260507070209 | 7 | 150 | 4.8 | 17.7 | 0.00 | 0.00 | 0.00 | 58 | 970.7 |
| 20260507065708 | 7 | 111 | 6.4 | 17.7 | 0.00 | 0.00 | 0.00 | 60 | 970.8 |
| 20260507065208 | 6 | 69 | 6.4 | 16.1 | 0.00 | 0.00 | 0.00 | 65 | 970.8 |
| 20260507064709 | 6 | 189 | 6.4 | 16.1 | 0.00 | 0.00 | 0.00 | 62 | 970.5 |
| 20260507064208 | 6 | 158 | 4.8 | 16.1 | 0.00 | 0.00 | 0.00 | 60 | 970.4 |
| 20260507063708 | 6 | 208 | 6.4 | 20.9 | 0.00 | 0.00 | 0.00 | 61 | 970.7 |
| 20260507063208 | 6 | 184 | 6.4 | 20.9 | 0.00 | 0.00 | 0.00 | 64 | 970.6 |
| 20260507062708 | 5 | 170 | 8.0 | 20.9 | 0.00 | 0.00 | 0.00 | 66 | 970.2 |
| 20260507062208 | 5 | 191 | 6.4 | 17.7 | 0.00 | 0.00 | 0.00 | 66 | 970.3 |
| 20260507061708 | 5 | 146 | 8.0 | 20.9 | 0.00 | 0.00 | 0.00 | 66 | 970.2 |
| 20260507061208 | 5 | 157 | 8.0 | 20.9 | 0.00 | 0.00 | 0.00 | 67 | 970.2 |
| 20260507060708 | 5 | 207 | 8.0 | 20.9 | 0.00 | 0.00 | 0.00 | 68 | 970.1 |
| 20260507060208 | 5 | 189 | 8.0 | 20.9 | 0.00 | 0.00 | 0.00 | 67 | 970.2 |
| 20260507055708 | 5 | 164 | 6.4 | 20.9 | 0.00 | 0.00 | 0.00 | 66 | 970.2 |
| 20260507055138 | 6 | 178 | 4.8 | 14.5 | 0.00 | 0.00 | 0.00 | 64 | 970.2 |
| 20260507054638 | 6 | 204 | 4.8 | 12.9 | 0.00 | 0.00 | 0.00 | 64 | 970.4 |
| 20260507054138 | 6 | 182 | 4.8 | 16.1 | 0.00 | 0.00 | 0.00 | 64 | 970.2 |
| 20260507053638 | 5 | 183 | 4.8 | 16.1 | 0.00 | 0.00 | 0.00 | 64 | 970.1 |
| 20260507053138 | 6 | 163 | 4.8 | 11.3 | 0.00 | 0.00 | 0.00 | 64 | 970.6 |
| 20260507052638 | 6 | 195 | 4.8 | 14.5 | 0.00 | 0.00 | 0.00 | 64 | 970.3 |
| 20260507052138 | 6 | 169 | 4.8 | 14.5 | 0.00 | 0.00 | 0.00 | 63 | 970.0 |
| 20260507051638 | 6 | 149 | 4.8 | 12.9 | 0.00 | 0.00 | 0.00 | 65 | 970.3 |
| 20260507051138 | 6 | 154 | 4.8 | 12.9 | 0.00 | 0.00 | 0.00 | 65 | 970.4 |
| 20260507050638 | 5 | 207 | 4.8 | 12.9 | 0.00 | 0.00 | 0.00 | 64 | 970.0 |
| 20260507050108 | 6 | 285 | 4.8 | 12.9 | 0.00 | 0.00 | 0.00 | 63 | 970.3 |
| 20260507045608 | 6 | 144 | 3.2 | 11.3 | 0.00 | 0.00 | 0.00 | 63 | 970.1 |
| 20260507045038 | 7 | 197 | 1.6 | 9.7 | 0.00 | 0.00 | 0.00 | 60 | 970.0 |
| 20260507044508 | 7 | 104 | 1.6 | 9.7 | 0.00 | 0.00 | 0.00 | 62 | 970.1 |
| 20260507043938 | 6 | 240 | 1.6 | 8.0 | 0.00 | 0.00 | 0.00 | 66 | 970.2 |
| 20260507043438 | 5 | 135 | 3.2 | 9.7 | 0.00 | 0.00 | 0.00 | 69 | 969.9 |
| 20260507042938 | 3 | 208 | 3.2 | 16.1 | 0.00 | 0.00 | 0.00 | 72 | 969.6 |
| 20260507042438 | 3 | 171 | 3.2 | 16.1 | 0.00 | 0.00 | 0.00 | 74 | 970.0 |
| 20260507041938 | 4 | 10 | 3.2 | 11.3 | 0.00 | 0.00 | 0.00 | 73 | 969.9 |
| 20260507041408 | 3 | 191 | 3.2 | 12.9 | 0.00 | 0.00 | 0.00 | 75 | 969.4 |
| 20260507040908 | 1 | 95 | 3.2 | 12.9 | 0.00 | 0.00 | 0.00 | 83 | 969.3 |
| 20260507040408 | 1 | 141 | 1.6 | 8.0 | 0.00 | 0.00 | 0.00 | 85 | 969.3 |
| 20260507035908 | 0 | 164 | 1.6 | 6.4 | 0.00 | 0.00 | 0.00 | 87 | 969.3 |
| 20260507035408 | 0 | 221 | 1.6 | 6.4 | 0.00 | 0.00 | 0.00 | 91 | 969.3 |
| 20260507034908 | 0 | 136 | 1.6 | 6.4 | 0.00 | 0.00 | 0.00 | 91 | 969.3 |
| 20260507034408 | 0 | 354 | 1.6 | 6.4 | 0.00 | 0.00 | 0.00 | 92 | 969.3 |
| 20260507033908 | 0 | 175 | 1.6 | 4.8 | 0.00 | 0.00 | 0.00 | 91 | 969.3 |
| 20260507033408 | 0 | 173 | 3.2 | 4.8 | 0.00 | 0.00 | 0.00 | 93 | 969.2 |
| 20260507032908 | 0 | 189 | 1.6 | 4.8 | 0.00 | 0.00 | 0.00 | 92 | 969.2 |
| 20260507032338 | 0 | 196 | 1.6 | 4.8 | 0.00 | 0.00 | 0.00 | 90 | 969.2 |
| 20260507031838 | 0 | 202 | 1.6 | 4.8 | 0.00 | 0.00 | 0.00 | 88 | 969.2 |
| 20260507031338 | -1 | 317 | 1.6 | 6.4 | 0.00 | 0.00 | 0.00 | 88 | 969.3 |
| 20260507030838 | -1 | 99 | 1.6 | 6.4 | 0.00 | 0.00 | 0.00 | 89 | 969.2 |
| 20260507030338 | -1 | 70 | 3.2 | 6.4 | 0.00 | 0.00 | 0.00 | 87 | 969.2 |
| 20260507025837 | 0 | 51 | 3.2 | 6.4 | 0.00 | 0.00 | 0.00 | 87 | 969.3 |
| 20260507025337 | 0 | 11 | 3.2 | 9.7 | 0.00 | 0.00 | 0.00 | 88 | 969.1 |
| 20260507024808 | 0 | 323 | 1.6 | 9.7 | 0.00 | 0.00 | 0.00 | 93 | 969.0 |
| 20260507024307 | 0 | 241 | 1.6 | 6.4 | 0.00 | 0.00 | 0.00 | 93 | 969.0 |
| 20260507023807 | 0 | 30 | 1.6 | 8.0 | 0.00 | 0.00 | 0.00 | 92 | 969.0 |
| 20260507023307 | 0 | 228 | 1.6 | 8.0 | 0.00 | 0.00 | 0.00 | 92 | 969.1 |
| 20260507022807 | -1 | 112 | 1.6 | 8.0 | 0.00 | 0.00 | 0.00 | 91 | 969.0 |
| 20260507022307 | -1 | 116 | 1.6 | 6.4 | 0.00 | 0.00 | 0.00 | 90 | 969.0 |
| 20260507021737 | -1 | 161 | 1.6 | 8.0 | 0.00 | 0.00 | 0.00 | 90 | 969.0 |
| 20260507021237 | -1 | 251 | 3.2 | 11.3 | 0.00 | 0.00 | 0.00 | 91 | 969.0 |
| 20260507020737 | -1 | 190 | 3.2 | 11.3 | 0.00 | 0.00 | 0.00 | 91 | 969.0 |
| 20260507020237 | 0 | 187 | 3.2 | 9.7 | 0.00 | 0.00 | 0.00 | 89 | 969.0 |
| 20260507015737 | 0 | 179 | 3.2 | 9.7 | 0.00 | 0.00 | 0.00 | 89 | 968.6 |
| 20260507015237 | 0 | 209 | 3.2 | 11.3 | 0.00 | 0.00 | 0.00 | 89 | 969.0 |
| 20260507014707 | 0 | 189 | 3.2 | 11.3 | 0.00 | 0.00 | 0.00 | 89 | 968.6 |
| 20260507014207 | 0 | 188 | 3.2 | 9.7 | 0.00 | 0.00 | 0.00 | 89 | 968.5 |
| 20260507013637 | 0 | 185 | 3.2 | 9.7 | 0.00 | 0.00 | 0.00 | 88 | 968.5 |
| 20260507013137 | 0 | 167 | 3.2 | 9.7 | 0.00 | 0.00 | 0.00 | 88 | 968.5 |
| 20260507012637 | 0 | 220 | 3.2 | 12.9 | 0.00 | 0.00 | 0.00 | 88 | 968.5 |
| 20260507012137 | 0 | 238 | 4.8 | 19.3 | 0.00 | 0.00 | 0.00 | 87 | 968.4 |
| 20260507011607 | 0 | 190 | 4.8 | 19.3 | 0.00 | 0.00 | 0.00 | 87 | 968.4 |
| 20260507011037 | 0 | 195 | 4.8 | 16.1 | 0.00 | 0.00 | 0.00 | 87 | 968.5 |
| 20260507010537 | 0 | 182 | 3.2 | 16.1 | 0.00 | 0.00 | 0.00 | 87 | 968.5 |
| 20260507010037 | 0 | 193 | 3.2 | 9.7 | 0.00 | 0.00 | 0.00 | 87 | 968.4 |
| 20260507005537 | 0 | 209 | 4.8 | 11.3 | 0.00 | 0.00 | 0.00 | 86 | 968.3 |
| 20260507005037 | 0 | 186 | 4.8 | 11.3 | 0.00 | 0.00 | 0.00 | 86 | 968.3 |
| 20260507004537 | 0 | 188 | 3.2 | 11.3 | 0.00 | 0.00 | 0.00 | 85 | 968.2 |
| 20260507004037 | 0 | 169 | 3.2 | 11.3 | 0.00 | 0.00 | 0.00 | 84 | 968.1 |
| 20260507003507 | 0 | 183 | 3.2 | 11.3 | 0.00 | 0.00 | 0.00 | 84 | 968.1 |
| 20260507003007 | 0 | 117 | 3.2 | 8.0 | 0.00 | 0.00 | 0.00 | 82 | 968.2 |
| 20260507002437 | 0 | 191 | 3.2 | 8.0 | 0.00 | 0.00 | 0.00 | 81 | 968.1 |
| 20260507001937 | 0 | 198 | 3.2 | 8.0 | 0.00 | 0.00 | 0.00 | 81 | 968.1 |
| 20260507001437 | 0 | 188 | 1.6 | 8.0 | 0.00 | 0.00 | 0.00 | 80 | 968.1 |
| 20260507000937 | 0 | 186 | 3.2 | 8.0 | 0.00 | 0.00 | 0.00 | 80 | 968.0 |
| 20260507000407 | 0 | 254 | 3.2 | 9.7 | 0.00 | 0.00 | 0.00 | 79 | 968.0 |
| 20260506235907 | 0 | 207 | 3.2 | 9.7 | 0.00 | 0.00 | 0.00 | 78 | 968.0 |
| 20260506235407 | 0 | 173 | 3.2 | 9.7 | 0.00 | 0.00 | 0.00 | 78 | 968.0 |
| 20260506234907 | 0 | 190 | 3.2 | 9.7 | 0.00 | 0.00 | 0.00 | 77 | 968.0 |
| 20260506234407 | 0 | 191 | 3.2 | 9.7 | 0.00 | 0.00 | 0.00 | 76 | 968.0 |
| 20260506233907 | 0 | 136 | 1.6 | 8.0 | 0.00 | 0.00 | 0.00 | 75 | 968.0 |
| 20260506233407 | 0 | 210 | 1.6 | 6.4 | 0.00 | 0.00 | 0.00 | 75 | 968.0 |
| 20260506232907 | 0 | 161 | 1.6 | 6.4 | 0.00 | 0.00 | 0.00 | 75 | 968.0 |
| 20260506232407 | 0 | 250 | 1.6 | 8.0 | 0.00 | 0.00 | 0.00 | 76 | 968.0 |
| 20260506231837 | 0 | 235 | 3.2 | 8.0 | 0.00 | 0.00 | 0.00 | 75 | 968.0 |
| 20260506231337 | 0 | 215 | 3.2 | 6.4 | 0.00 | 0.00 | 0.00 | 75 | 968.0 |
| 20260506230837 | 0 | 204 | 3.2 | 9.7 | 0.00 | 0.00 | 0.00 | 75 | 968.0 |
| 20260506230337 | 0 | 206 | 1.6 | 9.7 | 0.00 | 0.00 | 0.00 | 76 | 968.0 |
| 20260506225836 | 0 | 191 | 1.6 | 4.8 | 0.00 | 0.00 | 0.00 | 76 | 968.0 |
| 20260506225336 | 0 | 136 | 1.6 | 4.8 | 0.00 | 0.00 | 0.00 | 76 | 968.0 |
| 20260506224836 | 0 | 329 | 1.6 | 3.2 | 0.00 | 0.00 | 0.00 | 75 | 968.0 |
| 20260506224306 | 0 | 190 | 0.0 | 3.2 | 0.00 | 0.00 | 0.00 | 76 | 967.6 |
| 20260506223736 | 0 | 259 | 0.0 | 3.2 | 0.00 | 0.00 | 0.00 | 74 | 967.6 |
| 20260506223236 | 0 | 276 | 1.6 | 3.2 | 0.00 | 0.00 | 0.00 | 73 | 968.0 |
| 20260506222736 | 0 | 186 | 1.6 | 4.8 | 0.00 | 0.00 | 0.00 | 74 | 967.6 |
| 20260506222236 | 0 | 199 | 3.2 | 9.7 | 0.00 | 0.00 | 0.00 | 74 | 967.6 |
| 20260506221736 | 0 | 293 | 4.8 | 9.7 | 0.00 | 0.00 | 0.00 | 73 | 967.6 |
| 20260506221206 | 0 | 13 | 3.2 | 8.0 | 0.00 | 0.00 | 0.00 | 72 | 967.5 |
| 20260506220706 | 1 | 256 | 3.2 | 6.4 | 0.00 | 0.00 | 0.00 | 73 | 967.5 |
| 20260506220136 | 1 | 278 | 3.2 | 9.7 | 0.00 | 0.00 | 0.00 | 72 | 967.5 |
| 20260506215636 | 1 | 255 | 4.8 | 9.7 | 0.00 | 0.00 | 0.00 | 72 | 967.4 |
| 20260506215136 | 1 | 219 | 4.8 | 9.7 | 0.00 | 0.00 | 0.00 | 72 | 967.4 |
| 20260506214636 | 1 | 229 | 4.8 | 11.3 | 0.00 | 0.00 | 0.00 | 71 | 967.3 |
| 20260506214136 | 1 | 247 | 6.4 | 11.3 | 0.00 | 0.00 | 0.00 | 71 | 967.4 |
| 20260506213636 | 1 | 226 | 4.8 | 11.3 | 0.00 | 0.00 | 0.00 | 70 | 967.3 |
| 20260506213136 | 1 | 241 | 4.8 | 11.3 | 0.00 | 0.00 | 0.00 | 70 | 967.3 |
| 20260506212636 | 1 | 237 | 4.8 | 12.9 | 0.00 | 0.00 | 0.00 | 69 | 967.3 |
| 20260506212106 | 1 | 224 | 6.4 | 12.9 | 0.00 | 0.00 | 0.00 | 68 | 967.3 |
| 20260506211606 | 2 | 289 | 6.4 | 14.5 | 0.00 | 0.00 | 0.00 | 68 | 967.3 |
| 20260506211036 | 2 | 212 | 6.4 | 14.5 | 0.00 | 0.00 | 0.00 | 67 | 967.3 |
| 20260506210536 | 2 | 245 | 6.4 | 19.3 | 0.00 | 0.00 | 0.00 | 66 | 967.1 |
| 20260506210036 | 2 | 238 | 4.8 | 19.3 | 0.00 | 0.00 | 0.00 | 65 | 967.1 |
| 20260506205506 | 2 | 222 | 4.8 | 14.5 | 0.00 | 0.00 | 0.00 | 64 | 967.0 |
| 20260506205006 | 2 | 208 | 4.8 | 14.5 | 0.00 | 0.00 | 0.00 | 64 | 967.0 |
| 20260506204506 | 2 | 182 | 4.8 | 14.5 | 0.00 | 0.00 | 0.00 | 63 | 967.0 |
| 20260506204006 | 2 | 198 | 4.8 | 14.5 | 0.00 | 0.00 | 0.00 | 63 | 967.1 |
| 20260506203506 | 2 | 197 | 6.4 | 16.1 | 0.00 | 0.00 | 0.00 | 62 | 967.0 |
| 20260506203006 | 2 | 235 | 8.0 | 19.3 | 0.00 | 0.00 | 0.00 | 62 | 967.0 |
| 20260506202506 | 2 | 183 | 8.0 | 19.3 | 0.00 | 0.00 | 0.00 | 61 | 967.0 |
| 20260506202006 | 3 | 202 | 8.0 | 17.7 | 0.00 | 0.00 | 0.00 | 58 | 967.0 |
| 20260506201506 | 3 | 156 | 8.0 | 17.7 | 0.00 | 0.00 | 0.00 | 56 | 967.0 |
| 20260506201005 | 3 | 163 | 8.0 | 19.3 | 0.00 | 0.00 | 0.00 | 55 | 967.0 |
| 20260506200435 | 3 | 171 | 8.0 | 19.3 | 0.00 | 0.00 | 0.00 | 54 | 967.0 |
| 20260506195935 | 3 | 187 | 6.4 | 14.5 | 0.00 | 0.00 | 0.00 | 54 | 967.0 |
| 20260506195406 | 3 | 187 | 6.4 | 14.5 | 0.00 | 0.00 | 0.00 | 53 | 967.0 |
| 20260506194905 | 3 | 186 | 6.4 | 14.5 | 0.00 | 0.00 | 0.00 | 53 | 967.0 |
| 20260506194405 | 3 | 172 | 6.4 | 14.5 | 0.00 | 0.00 | 0.00 | 53 | 967.0 |
| 20260506193905 | 3 | 159 | 6.4 | 14.5 | 0.00 | 0.00 | 0.00 | 53 | 967.0 |
| 20260506193405 | 4 | 170 | 6.4 | 11.3 | 0.00 | 0.00 | 0.00 | 51 | 967.0 |
| 20260506192905 | 4 | 184 | 6.4 | 11.3 | 0.00 | 0.00 | 0.00 | 50 | 967.0 |
| 20260506192405 | 4 | 177 | 6.4 | 11.3 | 0.00 | 0.00 | 0.00 | 49 | 967.0 |
| 20260506191835 | 4 | 178 | 6.4 | 11.3 | 0.00 | 0.00 | 0.00 | 48 | 967.0 |
| 20260506191335 | 5 | 183 | 6.4 | 8.0 | 0.00 | 0.00 | 0.00 | 47 | 966.6 |
| 20260506190835 | 5 | 185 | 4.8 | 8.0 | 0.00 | 0.00 | 0.00 | 47 | 966.6 |
| 20260506190335 | 5 | 182 | 4.8 | 8.0 | 0.00 | 0.00 | 0.00 | 46 | 966.6 |
| 20260506185805 | 5 | 187 | 3.2 | 6.4 | 0.00 | 0.00 | 0.00 | 44 | 966.6 |
| 20260506185307 | 5 | 185 | 3.2 | 4.8 | 0.00 | 0.00 | 0.00 | 44 | 967.0 |
| 20260506184805 | 6 | 195 | 3.2 | 4.8 | 0.00 | 0.00 | 0.00 | 44 | 966.5 |
| 20260506184305 | 6 | 191 | 1.6 | 3.2 | 0.00 | 0.00 | 0.00 | 43 | 966.5 |
| 20260506183805 | 6 | 210 | 1.6 | 3.2 | 0.00 | 0.00 | 0.00 | 44 | 966.4 |
| 20260506183305 | 5 | 219 | 1.6 | 3.2 | 0.00 | 0.00 | 0.00 | 43 | 966.5 |
| 20260506182735 | 5 | 259 | 1.6 | 4.8 | 0.00 | 0.00 | 0.00 | 43 | 966.4 |
| 20260506182235 | 5 | 60 | 3.2 | 6.4 | 0.00 | 0.00 | 0.00 | 40 | 966.5 |
| 20260506181735 | 6 | 55 | 1.6 | 6.4 | 0.00 | 0.00 | 0.00 | 40 | 966.5 |
| 20260506181235 | 6 | 127 | 0.0 | 6.4 | 0.00 | 0.00 | 0.00 | 41 | 966.5 |
| 20260506180705 | 6 | 138 | 1.6 | 6.4 | 0.00 | 0.00 | 0.00 | 43 | 966.5 |
| 20260506180205 | 6 | 171 | 1.6 | 6.4 | 0.00 | 0.00 | 0.00 | 42 | 966.5 |
| 20260506175705 | 6 | 104 | 1.6 | 9.7 | 0.00 | 0.00 | 0.00 | 42 | 966.5 |
| 20260506175135 | 6 | 63 | 1.6 | 9.7 | 0.00 | 0.00 | 0.00 | 40 | 966.5 |
| 20260506174635 | 6 | 134 | 1.6 | 6.4 | 0.00 | 0.00 | 0.00 | 40 | 966.3 |
| 20260506174135 | 6 | 105 | 1.6 | 6.4 | 0.00 | 0.00 | 0.00 | 40 | 966.2 |
| 20260506173605 | 7 | 67 | 1.6 | 6.4 | 0.00 | 0.00 | 0.00 | 38 | 966.2 |
| 20260506173105 | 7 | 89 | 1.6 | 8.0 | 0.00 | 0.00 | 0.00 | 40 | 966.1 |
| 20260506172605 | 7 | 89 | 3.2 | 8.0 | 0.00 | 0.00 | 0.00 | 40 | 966.2 |
| 20260506172105 | 7 | 103 | 1.6 | 6.4 | 0.00 | 0.00 | 0.00 | 40 | 966.2 |
| 20260506171535 | 7 | 100 | 3.2 | 9.7 | 0.00 | 0.00 | 0.00 | 39 | 966.2 |
| 20260506171005 | 7 | 110 | 3.2 | 9.7 | 0.00 | 0.00 | 0.00 | 39 | 966.2 |
| 20260506170505 | 7 | 98 | 3.2 | 12.9 | 0.00 | 0.00 | 0.00 | 40 | 966.2 |
| 20260506170005 | 7 | 159 | 4.8 | 14.5 | 0.00 | 0.00 | 0.00 | 40 | 966.2 |
| 20260506165505 | 7 | 312 | 3.2 | 14.5 | 0.00 | 0.00 | 0.00 | 40 | 966.2 |
| 20260506165005 | 7 | 123 | 4.8 | 11.3 | 0.00 | 0.00 | 0.00 | 40 | 966.2 |
| 20260506164505 | 7 | 192 | 4.8 | 16.1 | 0.00 | 0.00 | 0.00 | 40 | 966.3 |
| 20260506164005 | 7 | 210 | 4.8 | 17.7 | 0.00 | 0.00 | 0.00 | 42 | 966.3 |
| 20260506163505 | 7 | 309 | 4.8 | 17.7 | 0.00 | 0.00 | 0.00 | 40 | 966.3 |
| 20260506163005 | 7 | 205 | 3.2 | 12.9 | 0.00 | 0.00 | 0.00 | 42 | 966.3 |
| 20260506162504 | 7 | 203 | 3.2 | 9.7 | 0.00 | 0.00 | 0.00 | 41 | 966.3 |
| 20260506162004 | 7 | 203 | 3.2 | 9.7 | 0.00 | 0.00 | 0.00 | 41 | 966.3 |
| 20260506161504 | 7 | 70 | 3.2 | 9.7 | 0.00 | 0.00 | 0.00 | 39 | 966.3 |
| 20260506161004 | 7 | 130 | 1.6 | 8.0 | 0.00 | 0.00 | 0.00 | 41 | 966.3 |
| 20260506160504 | 7 | 337 | 1.6 | 6.4 | 0.00 | 0.00 | 0.00 | 43 | 966.3 |
| 20260506160004 | 7 | 63 | 1.6 | 6.4 | 0.00 | 0.00 | 0.00 | 42 | 966.2 |
| 20260506155504 | 7 | 108 | 1.6 | 6.4 | 0.00 | 0.00 | 0.00 | 44 | 966.2 |
| 20260506155004 | 7 | 139 | 3.2 | 8.0 | 0.00 | 0.00 | 0.00 | 40 | 966.2 |
| 20260506154434 | 7 | 147 | 3.2 | 8.0 | 0.00 | 0.00 | 0.00 | 42 | 966.1 |
| 20260506153934 | 7 | 2 | 3.2 | 8.0 | 0.00 | 0.00 | 0.00 | 42 | 966.2 |
| 20260506153434 | 7 | 0 | 3.2 | 11.3 | 0.00 | 0.00 | 0.00 | 43 | 966.2 |
| 20260506152934 | 7 | 187 | 3.2 | 11.3 | 0.00 | 0.00 | 0.00 | 41 | 966.1 |
| 20260506152434 | 7 | 168 | 4.8 | 12.9 | 0.00 | 0.00 | 0.00 | 42 | 966.2 |
| 20260506151934 | 6 | 233 | 4.8 | 12.9 | 0.00 | 0.00 | 0.00 | 43 | 966.2 |
| 20260506151404 | 6 | 199 | 4.8 | 14.5 | 0.00 | 0.00 | 0.00 | 42 | 966.2 |
| 20260506150904 | 6 | 146 | 4.8 | 17.7 | 0.00 | 0.00 | 0.00 | 43 | 966.1 |
| 20260506150334 | 6 | 216 | 4.8 | 17.7 | 0.00 | 0.00 | 0.00 | 41 | 966.1 |
| 20260506145834 | 7 | 120 | 6.4 | 20.9 | 0.00 | 0.00 | 0.00 | 42 | 966.3 |
| 20260506145306 | 6 | 186 | 8.0 | 20.9 | 0.00 | 0.00 | 0.00 | 42 | 966.3 |
| 20260506144734 | 7 | 51 | 6.4 | 20.9 | 0.00 | 0.00 | 0.00 | 42 | 966.2 |
| 20260506144234 | 7 | 166 | 4.8 | 19.3 | 0.00 | 0.00 | 0.00 | 37 | 966.4 |
| 20260506143734 | 8 | 120 | 3.2 | 14.5 | 0.00 | 0.00 | 0.00 | 37 | 966.3 |
| 20260506143234 | 7 | 203 | 3.2 | 14.5 | 0.00 | 0.00 | 0.00 | 39 | 966.3 |
| 20260506142704 | 7 | 64 | 3.2 | 17.7 | 0.00 | 0.00 | 0.00 | 40 | 966.4 |
| 20260506142204 | 7 | 30 | 4.8 | 19.3 | 0.00 | 0.00 | 0.00 | 39 | 966.4 |
| 20260506141704 | 7 | 77 | 6.4 | 27.4 | 0.00 | 0.00 | 0.00 | 40 | 966.3 |
| 20260506141204 | 7 | 95 | 6.4 | 27.4 | 0.00 | 0.00 | 0.00 | 39 | 966.5 |
| 20260506140704 | 7 | 109 | 6.4 | 27.4 | 0.00 | 0.00 | 0.00 | 39 | 966.2 |
| 20260506140204 | 7 | 95 | 4.8 | 19.3 | 0.00 | 0.00 | 0.00 | 39 | 966.3 |
| 20260506135704 | 8 | 48 | 4.8 | 14.5 | 0.00 | 0.00 | 0.00 | 40 | 966.3 |
| 20260506135204 | 8 | 44 | 4.8 | 11.3 | 0.00 | 0.00 | 0.00 | 41 | 966.2 |
| 20260506134703 | 8 | 78 | 3.2 | 14.5 | 0.00 | 0.00 | 0.00 | 39 | 966.3 |
| 20260506134203 | 8 | 97 | 4.8 | 14.5 | 0.00 | 0.00 | 0.00 | 35 | 966.2 |
| 20260506133703 | 10 | 148 | 4.8 | 16.1 | 0.00 | 0.00 | 0.00 | 33 | 966.2 |
| 20260506133203 | 11 | 83 | 4.8 | 16.1 | 0.00 | 0.00 | 0.00 | 30 | 966.3 |
| 20260506132703 | 11 | 199 | 4.8 | 17.7 | 0.00 | 0.00 | 0.00 | 34 | 966.3 |
| 20260506132203 | 12 | 215 | 4.8 | 17.7 | 0.00 | 0.00 | 0.00 | 35 | 966.3 |
| 20260506131703 | 11 | 340 | 4.8 | 16.1 | 0.00 | 0.00 | 0.00 | 32 | 966.2 |
| 20260506131203 | 11 | 52 | 4.8 | 16.1 | 0.00 | 0.00 | 0.00 | 31 | 966.2 |
| 20260506130703 | 11 | 130 | 4.8 | 14.5 | 0.00 | 0.00 | 0.00 | 33 | 966.3 |
| 20260506130203 | 11 | 192 | 4.8 | 14.5 | 0.00 | 0.00 | 0.00 | 35 | 966.4 |
| 20260506125633 | 11 | 148 | 4.8 | 12.9 | 0.00 | 0.00 | 0.00 | 35 | 966.4 |
| 20260506125133 | 11 | 132 | 4.8 | 16.1 | 0.00 | 0.00 | 0.00 | 33 | 966.4 |
| 20260506124633 | 11 | 154 | 6.4 | 16.1 | 0.00 | 0.00 | 0.00 | 35 | 966.3 |
| 20260506124133 | 11 | 149 | 4.8 | 16.1 | 0.00 | 0.00 | 0.00 | 35 | 966.4 |
| 20260506123633 | 11 | 127 | 4.8 | 16.1 | 0.00 | 0.00 | 0.00 | 34 | 966.4 |
| 20260506123133 | 11 | 174 | 4.8 | 20.9 | 0.00 | 0.00 | 0.00 | 34 | 966.4 |
| 20260506122633 | 10 | 25 | 6.4 | 24.1 | 0.00 | 0.00 | 0.00 | 33 | 966.4 |
| 20260506122133 | 10 | 120 | 6.4 | 24.1 | 0.00 | 0.00 | 0.00 | 31 | 966.3 |
| 20260506121633 | 10 | 22 | 4.8 | 25.7 | 0.00 | 0.00 | 0.00 | 34 | 966.4 |
| 20260506121133 | 11 | 10 | 4.8 | 27.4 | 0.00 | 0.00 | 0.00 | 36 | 966.4 |
| 20260506120603 | 10 | 42 | 4.8 | 27.4 | 0.00 | 0.00 | 0.00 | 33 | 966.5 |
| 20260506120033 | 10 | 352 | 6.4 | 27.4 | 0.00 | 0.00 | 0.00 | 34 | 966.4 |
| 20260506115533 | 10 | 117 | 6.4 | 19.3 | 0.00 | 0.00 | 0.00 | 38 | 966.5 |
| 20260506115033 | 10 | 184 | 6.4 | 19.3 | 0.00 | 0.00 | 0.00 | 37 | 966.5 |
| 20260506114533 | 9 | 134 | 4.8 | 19.3 | 0.00 | 0.00 | 0.00 | 34 | 966.5 |
| 20260506114033 | 10 | 280 | 4.8 | 19.3 | 0.00 | 0.00 | 0.00 | 36 | 966.5 |
| 20260506113533 | 10 | 52 | 4.8 | 16.1 | 0.00 | 0.00 | 0.00 | 37 | 966.5 |
| 20260506113033 | 10 | 16 | 6.4 | 22.5 | 0.00 | 0.00 | 0.00 | 36 | 966.5 |
| 20260506112533 | 10 | 60 | 4.8 | 20.9 | 0.00 | 0.00 | 0.00 | 32 | 966.4 |
| 20260506112033 | 10 | 127 | 4.8 | 17.7 | 0.00 | 0.00 | 0.00 | 35 | 966.5 |
| 20260506111533 | 10 | 103 | 4.8 | 17.7 | 0.00 | 0.00 | 0.00 | 37 | 966.4 |
| 20260506111003 | 10 | 105 | 4.8 | 19.3 | 0.00 | 0.00 | 0.00 | 38 | 966.5 |
| 20260506110503 | 8 | 81 | 6.4 | 22.5 | 0.00 | 0.00 | 0.00 | 43 | 966.4 |
| 20260506110003 | 8 | 118 | 8.0 | 27.4 | 0.00 | 0.00 | 0.00 | 38 | 966.4 |
| 20260506105432 | 8 | 16 | 8.0 | 27.4 | 0.00 | 0.00 | 0.00 | 39 | 966.5 |
| 20260506104932 | 8 | 145 | 6.4 | 24.1 | 0.00 | 0.00 | 0.00 | 37 | 966.3 |
| 20260506104433 | 10 | 201 | 4.8 | 24.1 | 0.00 | 0.00 | 0.00 | 45 | 966.5 |
| 20260506103902 | 9 | 345 | 4.8 | 24.1 | 0.00 | 0.00 | 0.00 | 42 | 966.5 |